Date String (YYYY-MM-DD hh:mm:ss) UTC,Instrument flags,Ambient pressure (hPa),Sample flow (lpm),Bypass flow (lpm),Sample temperature (°C),Ambient temperature (°C),ASC tube jacket temperature (°C),LED temperature (°C),Box temperature (°C),Sample RH (%),Span deviation,Mass concentration (μg/m³),Mass concentration (μg/m³),Mass concentration (μg/m³)
DateTimeUTC,F1_M11,P_M11,Q1_M11,Q2_M11,T1_M11,T2_M11,T3_M11,T4_M11,T5_M11,U1_M11,ZSPAN_M11,X2_M11,X0_M11,X1_M11
2022-09-17 08:00:00,,0824.1,5.01,0.00,30.3,28.8,00.0,39.1,32.0,17.1,0000.0,0002.17,0002.98,0001.90
2022-09-17 08:01:00,,0824.1,4.99,0.00,30.3,28.8,00.0,39.1,32.1,17.0,0000.0,0002.21,0003.04,0001.91
2022-09-17 08:02:00,,0824.1,5.01,0.00,30.3,28.8,00.0,39.1,32.1,17.0,0000.0,0002.26,0003.15,0001.92
2022-09-17 08:03:00,,0824.1,5.00,0.00,30.3,28.9,00.0,39.1,32.1,16.9,0000.0,0002.29,0003.19,0001.93
2022-09-17 08:04:00,,0824.1,5.01,0.00,30.3,28.9,00.0,39.1,32.1,17.0,0000.0,0002.29,0002.99,0001.94
2022-09-17 08:05:00,,0824.1,4.99,0.00,30.3,28.9,00.0,39.1,32.1,16.9,0000.0,0002.32,0003.12,0001.96
2022-09-17 08:06:00,,0824.1,5.00,0.00,30.3,28.9,00.0,39.1,32.1,16.9,0000.0,0002.33,0003.15,0001.95
2022-09-17 08:07:00,,0824.1,5.01,0.00,30.3,29.0,00.0,39.1,32.1,16.9,0000.0,0002.34,0003.20,0001.97
2022-09-17 08:08:00,,0824.1,4.99,0.00,30.4,29.0,00.0,39.1,32.1,16.8,0000.0,0002.37,0003.24,0001.97
2022-09-17 08:09:00,,0824.1,5.02,0.00,30.4,29.0,00.0,39.1,32.2,16.7,0000.0,0002.35,0003.22,0001.97
2022-09-17 08:10:00,,0824.0,5.00,0.00,30.4,29.0,00.0,39.1,32.2,16.8,0000.0,0002.32,0003.12,0001.97
2022-09-17 08:11:00,,0824.1,5.01,0.00,30.4,29.0,00.0,39.1,32.2,16.9,0000.0,0002.33,0003.15,0001.97
2022-09-17 08:12:00,,0824.1,4.98,0.00,30.4,29.1,00.0,39.1,32.2,16.9,0000.0,0002.35,0003.21,0001.99
2022-09-17 08:13:00,,0824.2,5.01,0.00,30.4,29.1,00.0,39.2,32.2,16.8,0000.0,0002.35,0003.19,0002.00
2022-09-17 08:14:00,,0824.1,4.99,0.00,30.4,29.1,00.0,39.2,32.2,16.8,0000.0,0002.38,0003.77,0002.00
2022-09-17 08:15:00,,0824.1,5.00,0.00,30.4,29.1,00.0,39.2,32.2,16.9,0000.0,0002.44,0004.40,0002.01
2022-09-17 08:16:00,,0824.1,5.01,0.00,30.4,29.1,00.0,39.2,32.2,16.8,0000.0,0002.45,0004.74,0002.01
2022-09-17 08:17:00,,0824.1,4.99,0.00,30.5,29.1,00.0,39.2,32.3,16.7,0000.0,0002.45,0004.71,0002.02
2022-09-17 08:18:00,,0824.1,5.00,0.00,30.5,29.1,00.0,39.2,32.3,16.7,0000.0,0002.46,0004.71,0002.03
2022-09-17 08:19:00,,0824.1,4.99,0.00,30.5,29.1,00.0,39.2,32.3,16.9,0000.0,0002.48,0004.80,0002.04
2022-09-17 08:20:00,,0824.1,5.01,0.00,30.5,29.1,00.0,39.2,32.3,16.9,0000.0,0002.49,0004.78,0002.06
2022-09-17 08:21:00,,0824.1,5.00,0.00,30.5,29.1,00.0,39.2,32.3,17.0,0000.0,0002.52,0004.78,0002.10
2022-09-17 08:22:00,,0824.1,5.00,0.00,30.5,29.2,00.0,39.3,32.3,17.1,0000.0,0002.56,0004.82,0002.14
2022-09-17 08:23:00,,0824.1,4.98,0.00,30.5,29.2,00.0,39.3,32.3,17.1,0000.0,0002.56,0004.81,0002.15
2022-09-17 08:24:00,,0824.1,5.01,0.00,30.5,29.2,00.0,39.3,32.3,17.1,0000.0,0002.58,0004.88,0002.18
2022-09-17 08:25:00,,0824.1,5.00,0.00,30.5,29.2,00.0,39.3,32.3,17.1,0000.0,0002.58,0004.36,0002.21
2022-09-17 08:26:00,,0824.1,5.01,0.00,30.5,29.2,00.0,39.3,32.3,17.1,0000.0,0002.60,0003.88,0002.24
2022-09-17 08:27:00,,0824.2,4.99,0.00,30.6,29.2,00.0,39.3,32.3,17.1,0000.0,0002.61,0003.46,0002.27
2022-09-17 08:28:00,,0824.1,5.01,0.00,30.6,29.2,00.0,39.3,32.4,17.2,0000.0,0002.63,0004.44,0002.31
2022-09-17 08:29:00,,0824.1,4.99,0.00,30.6,29.2,00.0,39.3,32.4,17.2,0000.0,0002.64,0004.45,0002.33
2022-09-17 08:30:00,,0824.1,5.01,0.00,30.6,29.2,00.0,39.3,32.3,17.1,0000.0,0002.66,0004.40,0002.35
2022-09-17 08:31:00,,0824.1,5.01,0.00,30.6,29.2,00.0,39.3,32.3,17.1,0000.0,0002.69,0004.52,0002.38
2022-09-17 08:32:00,,0824.1,4.99,0.00,30.6,29.2,00.0,39.3,32.3,17.1,0000.0,0002.73,0004.69,0002.39
2022-09-17 08:33:00,,0824.1,5.00,0.00,30.6,29.2,00.0,39.3,32.4,17.2,0000.0,0002.75,0004.83,0002.40
2022-09-17 08:34:00,,0824.1,5.00,0.00,30.6,29.2,00.0,39.4,32.4,17.2,0000.0,0002.77,0004.85,0002.43
2022-09-17 08:35:00,,0824.1,5.00,0.00,30.6,29.2,00.0,39.4,32.4,17.3,0000.0,0002.80,0004.81,0002.46
2022-09-17 08:36:00,,0824.1,4.99,0.00,30.6,29.2,00.0,39.4,32.4,17.3,0000.0,0002.81,0004.82,0002.48
2022-09-17 08:37:00,,0824.1,5.01,0.00,30.6,29.2,00.0,39.4,32.4,17.3,0000.0,0002.78,0004.74,0002.48
2022-09-17 08:38:00,,0824.1,4.99,0.00,30.6,29.2,00.0,39.4,32.4,17.3,0000.0,0002.78,0004.85,0002.49
2022-09-17 08:39:00,,0824.1,5.01,0.00,30.6,29.2,00.0,39.4,32.4,17.3,0000.0,0002.79,0003.95,0002.49
2022-09-17 08:40:00,,0824.1,4.99,0.00,30.6,29.2,00.0,39.4,32.4,16.8,0000.0,0002.81,0003.97,0002.49
2022-09-17 08:41:00,,0824.1,5.00,0.00,30.6,29.2,00.0,39.4,32.4,16.0,0000.0,0002.77,0003.95,0002.45
2022-09-17 08:42:00,,0824.1,5.00,0.00,30.6,29.2,00.0,39.4,32.4,16.0,0000.0,0002.72,0004.57,0002.40
2022-09-17 08:43:00,,0824.1,5.00,0.00,30.6,29.2,00.0,39.4,32.4,16.0,0000.0,0002.65,0004.49,0002.34
2022-09-17 08:44:00,,0824.1,5.00,0.00,30.6,29.2,00.0,39.4,32.4,15.9,0000.0,0002.58,0004.32,0002.28
2022-09-17 08:45:00,,0824.1,5.00,0.00,30.7,29.2,00.0,39.4,32.4,16.0,0000.0,0002.51,0004.21,0002.22
2022-09-17 08:46:00,,0824.1,5.01,0.00,30.7,29.2,00.0,39.4,32.4,16.0,0000.0,0002.44,0004.14,0002.15
2022-09-17 08:47:00,,0824.1,4.99,0.00,30.7,29.3,00.0,39.4,32.4,15.9,0000.0,0002.38,0004.08,0002.09
2022-09-17 08:48:00,,0824.1,5.01,0.00,30.7,29.2,00.0,39.4,32.4,15.8,0000.0,0002.34,0004.04,0002.03
2022-09-17 08:49:00,,0824.0,5.00,0.00,30.7,29.3,00.0,39.4,32.4,15.8,0000.0,0002.31,0003.93,0001.99
2022-09-17 08:50:00,,0824.1,4.99,0.00,30.7,29.3,00.0,39.4,32.4,15.8,0000.0,0002.28,0003.88,0001.95
2022-09-17 08:51:00,,0824.1,5.01,0.00,30.7,29.3,00.0,39.4,32.5,15.8,0000.0,0002.21,0003.73,0001.90
2022-09-17 08:52:00,,0824.1,4.99,0.00,30.7,29.3,00.0,39.5,32.5,15.8,0000.0,0002.18,0003.67,0001.88
2022-09-17 08:53:00,,0824.2,5.01,0.00,30.7,29.2,00.0,39.5,32.4,15.8,0000.0,0002.16,0002.90,0001.87
2022-09-17 08:54:00,,0824.1,4.99,0.00,30.7,29.3,00.0,39.5,32.5,15.9,0000.0,0002.15,0002.73,0001.86
2022-09-17 08:55:00,,0824.1,5.01,0.00,30.7,29.3,00.0,39.5,32.5,16.1,0000.0,0002.12,0002.70,0001.85
2022-09-17 08:56:00,,0824.1,5.00,0.00,30.7,29.3,00.0,39.5,32.5,16.0,0000.0,0002.10,0002.76,0001.83
2022-09-17 08:57:00,,0824.1,5.00,0.00,30.7,29.3,00.0,39.5,32.5,16.2,0000.0,0002.06,0002.79,0001.81
2022-09-17 08:58:00,,0824.1,5.00,0.00,30.7,29.3,00.0,39.5,32.5,16.2,0000.0,0002.01,0002.68,0001.79
2022-09-17 08:59:00,,0824.1,5.00,0.00,30.7,29.3,00.0,39.5,32.5,16.0,0000.0,0001.99,0002.66,0001.77
